Zurück zum Katalog

STARLINK-35012

AktivKommunikationSSO
NORAD 65384·PAYLOAD·🇺🇸 United States

Gestartet Aug 30, 2025 von Vandenberg Space Force Base

Loading…

Nächste Überflüge (nächste 24 Stunden)

TLE

AktuellSource: CelesTrak SupGP

Epoche: Sep 15, 2026, 10:26 UTC

1 65384C 25191F   26258.43520833  .00039070  00000+0  12132-2 0  2582
2 65384  97.2840 124.6099 0001932  87.3905  60.8952 15.33409795    13

Verfolge STARLINK-35012 in Echtzeit mit AllMySat

Download on the App Store